Theta_e
321 321 322 322 325 325 330 333 333 335 334 335 338 349 348 350 347 356 348 350 349 330 332 334 337 340 338 342 343 338 333 323 321 321 323 324 324 324 324 323 322 321 320 319 320 321 322 324 326
320 321 321 323 323 326 330 332 334 335 335 337 338 341 350 351 346 346 346 349 346 328 334 334 336 338 338 340 344 341 337 328 322 321 320 321 323 323 323 322 321 320 320 321 321 321 322 324 325
319 318 320 320 322 326 329 332 334 337 338 338 337 342 347 349 345 345 347 349 346 329 334 334 335 337 337 339 343 344 339 335 326 322 321 320 320 320 320 320 320 321 321 322 321 321 321 321 322
317 321 321 320 322 326 329 330 332 337 337 337 337 342 344 348 345 344 347 349 337 332 334 335 336 335 336 337 341 344 341 339 332 325 323 322 321 320 320 320 321 321 322 322 321 320 320 320 320
317 319 318 320 323 326 329 332 334 338 339 336 337 344 348 348 345 345 346 349 330 333 335 334 335 334 335 335 338 343 343 340 336 329 324 323 321 321 321 321 322 322 322 321 320 320 320 320 320
318 320 318 321 323 326 331 332 338 339 339 338 338 348 347 347 346 347 348 348 337 332 337 335 335 334 332 332 335 342 344 341 339 331 325 323 322 322 321 321 322 322 321 320 320 320 320 320 320
315 316 319 320 322 326 329 334 337 337 337 337 338 347 344 343 344 347 347 347 347 340 333 335 335 333 331 330 334 341 343 342 340 334 326 323 322 322 323 322 322 321 320 320 320 320 320 320 320
317 315 319 321 322 324 326 330 337 337 336 336 337 344 347 343 342 345 346 347 346 346 339 331 333 332 329 328 334 341 343 342 340 336 328 323 322 322 322 322 321 320 320 320 320 320 319 319 320
317 316 318 320 322 324 327 333 335 336 332 334 336 348 347 345 344 343 345 347 346 347 348 336 330 329 327 326 334 341 343 342 339 334 328 324 322 322 322 321 321 320 320 320 320 319 319 319 320
315 315 317 319 321 323 325 328 331 332 330 330 333 336 345 347 347 345 344 347 346 348 350 347 328 330 328 325 331 339 341 342 339 334 327 324 323 322 322 321 321 320 320 320 320 320 320 320 322
316 316 316 319 320 321 322 325 328 327 327 329 329 332 334 341 344 346 345 344 346 345 346 347 337 328 328 323 324 336 339 339 339 334 328 325 323 322 321 321 321 320 320 320 320 320 320 321 326
314 317 318 319 320 321 321 324 328 327 327 329 328 327 329 329 332 335 334 343 345 347 345 346 347 343 327 323 321 327 334 337 337 334 329 325 323 322 322 323 323 324 323 321 320 320 328 330 330
315 316 318 320 321 321 321 322 326 327 326 325 326 326 326 326 326 327 328 336 338 345 345 338 347 345 344 330 334 330 324 329 330 330 328 325 323 323 323 326 327 327 331 331 322 324 326 330 329
317 317 318 320 320 320 319 321 321 322 324 324 321 323 323 324 324 325 328 329 330 335 343 345 347 345 345 343 335 337 337 326 324 327 326 324 324 323 323 325 327 326 330 338 333 331 329 326 327
318 317 317 318 320 319 321 319 319 321 321 321 321 321 322 322 323 324 327 326 328 334 347 346 344 344 335 338 341 340 339 340 328 324 324 324 324 323 322 326 329 327 330 338 338 335 335 330 325
317 316 316 318 319 320 319 317 319 321 321 321 320 321 321 321 322 322 324 326 327 332 341 344 344 338 338 341 345 345 343 341 342 337 333 335 332 332 325 326 330 333 333 338 339 336 336 332 329
315 315 317 318 318 319 318 317 319 321 321 320 321 321 321 321 321 322 322 325 325 327 342 344 343 342 343 348 348 344 348 346 345 342 342 341 342 342 341 336 329 332 337 341 341 340 338 336 334
316 316 316 317 318 317 317 317 317 320 320 320 321 321 320 321 321 321 321 323 325 325 327 329 346 351 349 348 350 350 346 348 347 345 345 346 344 345 345 344 344 338 339 336 335 334 335 336 330
317 318 317 317 318 318 317 317 317 319 320 321 321 321 321 321 321 321 321 321 323 325 326 329 330 347 349 350 352 352 351 349 348 349 349 347 347 347 347 348 347 345 342 339 338 339 339 337 333
318 317 317 318 320 320 319 318 318 319 319 320 321 321 321 321 321 322 321 322 324 324 323 323 323 324 337 349 347 351 351 352 349 347 347 347 347 347 349 348 348 348 347 346 341 345 341 340 335
317 317 318 319 319 318 318 318 319 320 320 321 321 321 321 321 321 321 321 322 322 322 323 323 323 322 323 331 347 347 347 348 348 350 351 348 347 349 350 348 348 349 349 348 345 345 345 343 338
316 318 319 319 317 315 318 315 318 319 317 317 320 321 322 321 321 321 321 321 323 322 321 321 326 327 326 324 324 337 344 347 349 347 347 346 348 348 347 347 346 346 347 348 348 342 346 345 339
316 317 317 317 315 315 315 315 315 317 318 318 318 321 322 322 321 322 321 322 322 322 322 322 324 327 328 328 327 328 330 336 338 341 345 345 346 347 346 348 345 345 345 344 343 341 343 345 342
318 317 316 315 315 315 318 318 317 318 318 318 319 320 321 321 321 321 322 322 322 322 323 324 325 325 326 326 326 327 328 327 324 327 337 343 344 343 345 345 343 341 333 332 338 342 341 344 343
316 315 313 314 315 316 317 317 317 318 319 320 320 321 321 321 322 322 323 323 323 323 323 323 324 324 324 324 325 325 325 327 328 328 325 322 329 339 342 342 342 341 341 340 337 331 329 336 341
316 316 313 315 317 318 320 321 320 323 324 323 323 322 323 323 323 322 322 322 322 322 322 322 322 322 322 321 320 321 324 325 325 325 327 327 330 328 323 323 330 336 336 338 336 334 328 324 330
321 317 316 319 319 319 319 320 322 324 324 323 323 323 322 322 322 321 320 320 320 320 320 320 320 320 320 321 323 323 325 327 327 328 329 329 329 330 331 330 332 335 338 337 332 334 332 329 334
322 321 321 318 323 322 322 322 324 326 325 324 323 323 322 322 321 320 319 318 318 318 317 318 319 320 321 323 323 323 323 323 327 324 323 323 322 328 333 334 332 332 332 333 337 336 330 325 325
321 323 321 318 324 326 327 326 324 324 324 322 321 322 322 321 320 318 317 317 317 317 318 319 319 319 320 320 320 320 321 323 324 322 322 320 317 322 327 328 329 329 329 332 335 336 334 330 328
318 320 324 326 324 322 321 323 322 321 322 322 321 321 322 322 320 318 317 317 317 317 318 318 318 317 317 316 317 318 318 319 319 319 320 319 318 318 318 320 323 328 330 331 331 334 332 331 329
Wind_Speed
12 11 13 16 0 2 7 8 11 19 17 18 11 14 12 13 7 5 13 18 15 28 32 31 31 28 26 24 23 21 20 20 20 20 20 19 18 17 16 15 14 12 11 10 10 9 9 9 9
14 12 12 6 3 4 8 15 19 17 29 6 9 15 22 11 22 24 22 19 15 29 34 32 31 29 26 24 22 21 20 19 19 19 19 18 17 16 15 13 12 11 10 9 9 9 8 8 7
13 10 4 3 4 10 8 19 10 5 12 7 4 16 7 11 24 22 16 23 19 30 33 33 30 28 26 24 23 21 20 18 18 17 17 17 16 15 13 12 11 10 9 9 9 8 7 7 7
8 5 7 3 10 13 21 21 23 12 5 3 8 9 12 30 28 24 23 21 23 32 33 32 30 27 25 24 23 22 20 18 17 16 16 16 15 14 13 12 11 10 9 8 7 7 7 6 6
10 7 4 5 11 12 18 27 29 7 15 9 13 5 11 17 27 30 27 22 28 33 32 30 29 27 25 24 22 23 21 19 17 16 15 15 14 13 12 11 10 9 8 7 6 6 6 5 5
9 9 3 7 17 18 19 31 6 4 18 19 3 13 10 21 35 30 24 18 24 29 31 29 27 25 25 24 23 22 23 20 17 16 15 15 13 12 11 10 9 8 7 6 6 5 5 4 4
10 4 7 9 15 16 22 22 6 6 11 12 16 4 20 24 27 26 21 19 17 19 27 28 28 25 24 24 24 24 23 22 19 16 14 13 13 12 11 9 8 7 6 5 5 4 4 3 3
22 3 8 13 15 20 23 22 13 10 6 8 20 1 10 17 22 25 23 23 18 15 16 24 26 27 26 25 25 24 24 22 19 18 17 15 14 13 11 10 9 7 6 6 5 4 3 2 2
28 9 13 16 17 18 15 8 6 26 4 14 3 26 27 22 18 23 25 26 20 17 14 22 26 25 25 26 27 26 25 23 21 19 18 18 16 15 13 12 11 10 9 8 7 5 4 3 1
10 11 17 11 15 18 18 6 16 14 4 7 13 15 17 22 20 25 24 31 23 21 18 11 24 26 26 26 29 29 29 27 25 23 21 20 18 16 15 14 13 12 12 11 10 9 6 4 5
19 15 9 20 31 32 21 10 12 9 3 11 7 18 17 15 17 23 27 29 30 21 18 16 14 21 23 26 29 30 31 29 27 26 24 22 21 19 18 18 17 16 15 13 12 11 9 8 8
11 20 23 24 29 30 15 17 7 7 10 11 8 7 5 8 7 11 4 9 18 27 20 16 14 10 16 22 25 29 30 30 29 27 26 25 23 22 21 19 18 16 16 16 15 15 12 11 10
17 17 27 32 30 33 28 8 3 14 9 6 7 3 6 5 6 7 6 10 16 26 30 21 23 12 12 19 20 21 28 31 31 29 27 27 26 25 23 20 19 18 15 15 19 18 17 15 12
23 24 25 26 31 29 10 6 2 8 14 15 15 7 4 8 8 13 11 11 7 9 27 34 29 17 14 16 22 25 21 26 30 31 31 31 30 29 28 26 24 22 21 17 18 19 17 15 14
27 10 11 12 11 7 13 6 8 12 17 18 18 18 14 14 12 15 22 20 12 6 33 35 30 21 20 23 24 28 27 21 26 29 31 32 32 31 31 30 29 27 25 23 22 22 20 22 21
6 6 3 6 7 15 8 8 7 17 21 23 22 24 25 16 22 20 22 25 12 4 21 27 30 32 26 31 24 28 28 25 25 26 27 28 30 30 33 34 35 33 31 29 29 28 28 28 26
5 4 4 8 8 10 10 6 10 23 30 26 30 24 19 17 20 21 19 20 18 14 15 16 24 23 26 31 25 35 28 26 28 29 28 30 30 30 30 34 38 36 36 37 37 36 35 34 32
7 5 6 9 17 12 13 11 11 24 20 24 32 26 21 21 24 24 21 15 14 15 11 12 14 16 22 24 26 27 31 32 33 32 32 32 33 34 35 35 35 37 38 38 41 43 41 39 35
12 8 13 12 16 12 16 12 13 18 16 8 17 17 16 19 21 22 19 25 19 16 18 11 10 10 16 20 23 27 30 30 40 32 32 33 32 36 37 39 40 38 44 45 43 43 43 39 34
15 12 11 9 6 4 2 8 8 7 6 11 24 27 28 24 22 13 15 17 18 15 13 14 16 14 16 17 23 27 28 27 26 30 35 39 39 41 40 43 46 45 45 46 48 44 45 40 34
11 9 4 5 10 7 5 4 4 5 7 18 21 31 32 31 26 22 18 15 14 14 11 7 6 11 13 18 20 23 25 25 26 28 31 29 31 42 43 48 48 48 47 49 48 46 45 45 41
5 8 4 7 8 4 2 5 6 5 11 11 23 26 26 33 27 26 28 21 18 17 11 8 7 7 8 10 14 20 23 22 27 31 29 31 34 39 44 47 48 51 52 53 46 48 45 47 46
7 9 8 8 6 6 9 2 6 7 7 15 17 28 27 29 30 23 20 21 19 17 13 9 8 10 7 8 10 15 20 25 24 24 25 31 35 36 43 50 45 44 48 45 43 47 51 54 50
7 5 5 5 1 2 4 4 6 10 9 8 7 32 35 33 23 20 22 23 17 12 9 9 7 3 2 4 7 10 14 19 24 30 31 33 35 36 38 38 44 49 52 62 46 37 48 50 44
7 3 3 5 4 5 8 6 14 9 12 16 21 16 22 26 29 27 24 19 12 8 4 3 4 5 7 9 12 15 17 19 21 24 27 32 39 44 42 43 38 38 48 42 35 28 27 29 36
8 4 5 7 5 5 7 6 8 6 7 24 22 33 36 32 28 23 18 15 13 9 4 4 8 10 14 18 21 21 20 22 22 22 24 29 30 33 36 40 38 37 39 37 40 42 53 47 48
6 6 6 1 2 1 4 6 5 8 8 9 13 24 28 24 19 16 14 13 9 5 4 5 6 7 10 15 17 16 14 17 19 20 22 26 29 34 38 40 41 42 40 31 34 32 35 43 43
6 5 5 3 1 5 4 6 1 8 11 14 14 19 18 19 15 12 11 8 5 5 7 11 9 10 8 8 8 12 15 16 16 23 25 27 31 32 33 34 36 38 40 38 32 30 34 49 54
5 3 4 6 7 5 1 3 6 6 7 6 10 15 11 14 14 8 7 8 5 4 4 4 5 7 9 10 9 10 15 15 18 25 29 32 31 29 32 37 40 42 38 32 35 34 36 42 48
9 9 4 3 8 3 4 9 8 8 9 12 13 17 13 12 11 6 7 6 4 8 11 8 5 4 9 13 16 17 14 14 18 23 29 31 34 30 30 32 37 33 34 30 32 33 30 35 37
Wind_Direction
277 284 293 309 72 211 247 249 257 281 280 280 118 98 90 56 133 178 152 175 181 165 156 158 157 154 150 147 145 142 136 133 134 135 135 136 138 135 130 129 127 125 121 115 109 105 105 107 109
275 288 305 267 180 253 260 246 247 262 270 82 94 97 78 86 124 145 157 180 180 167 159 159 159 157 153 150 149 148 143 138 138 140 141 142 141 138 136 137 135 131 125 118 113 111 109 108 105
270 272 295 200 200 236 259 256 242 291 345 46 52 101 84 111 125 145 172 169 180 170 162 159 160 160 156 154 154 153 151 146 145 148 149 149 147 145 146 146 143 136 130 124 119 117 112 106 100
260 243 244 245 256 246 248 273 275 321 339 355 296 78 87 140 146 162 175 174 182 171 165 162 162 162 161 160 159 160 159 157 154 155 158 157 156 155 154 153 150 143 138 131 127 121 114 106 100
232 257 238 230 249 259 262 260 268 279 287 287 244 89 97 118 152 160 174 174 179 170 166 165 165 165 166 166 167 166 166 165 164 164 165 164 163 162 161 160 156 152 147 143 137 129 121 112 100
226 204 264 226 250 259 256 259 341 284 260 304 56 108 103 135 145 158 167 172 172 167 168 167 169 170 170 172 173 174 172 172 174 173 172 169 168 168 168 166 164 164 161 159 150 145 135 121 102
218 238 221 244 259 263 252 250 118 286 287 4 338 96 132 137 148 156 153 160 170 160 171 172 172 174 175 177 178 178 179 178 178 178 179 177 174 176 177 177 178 179 179 177 170 164 154 137 111
226 231 250 241 252 260 268 275 171 273 318 138 276 17 122 147 150 157 153 173 172 167 175 182 180 179 180 180 182 182 183 184 184 186 184 184 185 186 188 189 191 193 198 196 193 188 183 167 108
230 234 231 242 244 253 270 39 213 194 117 283 41 123 139 140 155 160 159 170 175 183 191 192 188 186 186 184 184 186 188 189 190 193 195 192 193 196 198 201 203 203 204 206 204 209 209 200 141
225 222 233 242 253 262 281 314 236 191 350 209 111 190 145 153 170 167 170 167 184 190 183 197 198 191 191 191 190 190 191 195 197 198 199 199 201 204 207 213 212 213 212 212 210 214 217 216 189
247 233 228 241 260 267 277 289 278 151 172 240 165 165 167 172 187 176 181 182 188 201 205 204 203 202 201 199 197 197 198 200 202 204 204 204 207 208 212 217 216 218 220 221 218 220 223 221 210
241 244 235 246 244 259 263 252 176 275 177 182 195 94 77 109 169 163 171 170 175 188 210 206 200 190 212 218 205 207 207 207 209 210 209 210 212 214 218 218 221 225 233 233 229 227 217 219 223
222 233 234 239 253 263 274 289 172 240 286 294 255 222 180 243 264 265 210 176 212 203 196 200 213 198 210 224 221 218 219 216 214 216 217 217 218 222 223 229 230 225 221 231 231 227 223 229 236
231 225 233 226 235 248 239 243 262 272 270 277 300 274 238 217 250 276 244 263 242 235 207 202 196 206 207 227 223 229 231 229 224 221 221 220 223 224 227 229 230 229 227 229 233 229 230 239 244
248 243 230 234 242 264 262 262 231 237 268 264 264 274 269 237 237 237 248 263 266 206 182 199 200 232 212 227 235 226 231 235 230 226 227 230 228 228 227 229 233 237 232 230 234 239 239 234 234
263 246 210 246 231 257 227 245 250 241 242 241 244 243 248 248 246 242 245 240 235 222 196 199 206 208 226 225 220 221 220 228 240 237 236 237 236 234 232 232 233 232 229 231 232 233 237 242 245
280 202 272 278 251 215 181 218 229 245 232 232 229 229 213 240 253 241 245 229 223 224 174 198 204 216 218 220 213 216 219 217 230 237 241 247 248 246 241 240 242 238 230 225 226 227 235 238 242
249 200 225 225 241 236 216 215 221 233 249 234 215 203 207 227 245 252 231 231 216 215 215 200 200 216 218 234 233 220 228 226 221 229 234 241 245 248 247 249 250 248 243 237 237 237 236 238 245
255 261 222 237 242 222 221 200 205 219 235 162 165 177 202 232 250 227 231 235 220 211 221 217 215 209 222 231 239 237 231 236 230 228 229 236 242 247 249 252 250 249 249 248 243 241 239 241 242
251 262 277 283 313 333 288 205 195 204 221 209 193 202 214 216 233 224 197 202 212 215 231 241 252 259 242 231 240 243 244 248 246 242 246 239 237 245 249 251 252 250 250 250 245 242 242 242 240
242 241 294 312 314 318 337 284 221 236 235 264 239 223 220 207 214 223 217 198 215 214 197 201 250 265 269 254 243 247 253 257 257 253 257 251 245 241 247 250 254 255 254 255 253 241 238 238 240
295 306 279 294 302 266 2 271 268 226 242 242 248 233 205 201 208 219 220 216 197 176 173 183 187 213 260 268 270 253 253 259 258 259 261 261 257 253 251 252 256 259 261 257 252 243 238 236 239
249 287 267 248 245 264 298 354 266 297 262 241 236 228 213 200 200 190 191 192 156 140 134 147 150 150 183 225 260 262 264 262 270 264 263 259 258 263 259 256 256 257 264 266 262 251 245 237 241
289 265 297 292 206 325 233 236 278 260 261 277 221 220 213 198 195 177 156 142 133 141 140 138 142 145 263 297 308 298 295 293 281 268 263 259 257 256 256 263 263 259 256 266 257 268 265 241 237
356 103 330 325 323 221 246 255 241 277 255 265 258 211 168 147 130 127 122 118 125 143 155 184 213 239 262 284 294 297 293 286 283 283 279 275 270 264 265 264 274 269 262 256 241 261 316 274 257
271 162 168 226 231 261 339 260 239 288 341 74 68 96 105 104 106 104 104 103 108 110 121 252 275 284 290 294 303 298 290 293 296 287 284 278 278 277 274 273 280 288 280 272 266 278 259 253 253
313 290 228 35 315 10 271 311 326 24 4 52 90 110 105 106 102 99 100 99 92 64 340 290 280 275 279 284 272 268 280 293 295 288 283 283 280 275 275 277 284 285 290 296 281 278 261 237 247
292 294 318 352 326 287 229 262 209 34 33 35 66 62 97 105 104 92 77 58 23 346 333 329 254 246 236 223 266 280 269 269 278 289 293 290 291 288 288 286 283 285 291 293 283 263 248 240 242
322 316 286 181 149 184 303 250 142 83 62 35 64 30 37 33 36 47 34 6 336 315 335 58 330 284 270 273 291 297 290 294 278 283 292 298 299 301 300 296 291 291 289 294 285 273 261 244 247
274 267 240 179 289 253 191 240 109 99 71 37 20 12 11 351 339 341 328 292 267 276 283 287 303 327 320 297 290 295 296 303 304 291 288 299 300 296 301 304 302 295 292 293 288 281 268 252 245